User: anonymous   Login
Location: Ottawa
(45.4170°N, 75.7000°W)
Time: 23:36:39
(UTC-05:00)
Language:

Aureole 3 Rocket - Orbit

View from above orbital plane
View from above orbital plane
View from above satellite
View from above satellite

Ground track
Ground track

The orbit data is extracted from the following two-line orbital elements,

1 12849U 81094B   14326.12411918  .00001740  00000-0  15986-3 0   455
2 12849 082.4907 165.9403 0911066 055.0833 313.2516 13.48489020615407
Epoch (UTC): 22 November 2014 02:58:43
Eccentricity: 0.0911066
inclination: 82.4907°
perigee height: 398 km
apogee height: 1757 km
right ascension of ascending node: 165.9403°
argument of perigee: 55.0833°
revolutions per day: 13.48489020
mean anomaly at epoch: 313.2516°
orbit number at epoch: 61540

The dashed part of the orbit path shows where the satellite is in the earth's shadow,  

DLR